GFSSW_850_thetae_246.txt.gz
Theta_e
299 298 298 297 298 298 298 298 297 296 296 296 297 299 301 302 303 304 305 305 306 305 305 305 304 304 303 304 307 312 312 309 311 316 318 321 322 322 324 325 330 334 334 334 333
298 298 297 297 298 298 298 297 297 296 296 296 296 299 301 303 301 304 305 306 306 306 305 305 306 305 305 304 305 307 306 306 308 310 316 319 321 322 324 326 329 331 331 333 332
298 297 297 297 297 297 297 297 297 296 296 296 296 298 300 303 301 304 305 306 306 309 305 304 305 305 306 305 304 306 307 304 304 306 311 315 318 321 323 326 327 330 332 333 334
298 297 297 297 297 297 297 297 297 296 296 296 296 298 301 304 306 304 305 304 306 306 305 305 305 305 306 306 304 304 302 303 305 304 304 310 316 319 322 324 323 324 330 333 333
297 297 297 297 297 297 297 297 297 296 296 296 296 298 302 304 304 305 307 307 307 306 305 305 305 305 305 304 304 303 304 303 302 303 304 306 311 318 319 323 326 325 326 330 332
297 297 297 297 297 297 297 297 296 296 296 296 297 299 303 305 304 306 307 307 307 305 306 305 305 304 304 304 305 303 304 304 303 304 305 307 309 315 320 320 329 328 328 329 331
297 297 297 296 297 297 297 297 296 296 296 298 299 301 303 304 305 307 306 307 306 305 306 306 306 304 305 305 304 304 305 303 303 303 306 309 311 316 319 319 325 327 328 330 331
297 297 297 296 297 297 297 297 296 296 299 301 302 302 303 304 305 306 307 307 306 306 306 305 305 304 304 304 305 305 306 307 303 304 305 310 312 315 318 319 322 322 325 327 329
297 296 297 297 296 297 297 296 296 297 301 302 302 302 304 304 306 306 307 307 306 306 304 304 305 305 305 306 306 308 309 308 308 306 310 309 311 321 320 319 321 322 321 321 323
296 296 297 296 296 297 296 296 296 298 300 301 301 304 304 303 306 305 306 307 306 305 306 306 306 307 306 307 308 308 308 310 311 310 308 312 310 320 320 321 320 321 321 320 319
296 296 296 296 296 296 296 296 296 296 300 300 300 302 303 304 306 305 306 307 307 307 309 306 309 310 310 307 306 307 308 310 310 312 310 310 320 320 321 320 319 319 320 319 319
296 296 296 296 296 296 296 296 296 296 298 298 299 302 302 302 305 305 306 308 308 310 309 309 311 308 307 307 307 309 312 312 314 314 313 314 318 319 319 319 319 318 318 319 317
296 296 296 296 296 296 295 296 297 297 300 297 298 301 301 302 305 305 305 306 308 309 309 311 310 306 308 310 313 313 317 318 317 318 316 315 314 319 316 314 312 314 315 317 319
295 295 295 295 296 295 295 296 298 297 305 297 299 301 302 302 305 303 304 306 307 307 308 310 308 308 310 310 308 316 312 315 317 317 316 312 316 311 310 308 306 305 310 312 316
295 295 295 295 295 295 295 297 299 296 311 296 299 301 302 303 302 304 304 305 306 306 307 308 308 309 312 309 307 315 314 315 315 316 313 310 312 306 307 307 305 305 304 308 314
295 295 295 295 295 295 295 297 295 313 307 298 297 300 303 301 302 302 303 304 303 304 305 306 304 307 308 307 306 307 313 312 311 315 315 308 310 306 305 304 304 305 305 306 311
296 296 295 295 295 295 296 298 311 312 294 297 300 299 301 302 303 301 304 305 306 309 309 307 307 306 306 311 311 309 311 319 320 318 313 308 306 306 305 305 305 305 305 305 306
297 296 295 295 295 295 297 302 304 292 293 294 298 299 302 300 302 301 303 306 304 305 307 309 311 307 306 307 309 309 308 313 317 317 310 306 306 306 304 303 303 304 304 305 306
297 296 296 295 295 296 296 304 304 295 293 298 297 301 301 300 300 301 301 303 302 303 306 308 309 305 305 305 306 310 310 305 307 302 309 307 307 308 307 305 303 304 304 304 305
298 296 296 295 295 296 300 301 294 290 297 297 300 297 302 300 302 302 301 300 300 300 300 305 309 304 305 306 307 307 305 310 310 313 310 305 307 309 308 306 304 304 304 304 303
298 296 296 296 295 296 302 296 290 291 296 297 297 297 299 300 297 301 301 299 298 299 301 304 306 309 307 308 308 309 310 306 306 306 308 307 307 303 307 306 306 304 302 302 302
298 297 296 297 295 285 295 289 292 294 295 296 297 297 300 298 300 300 302 300 297 297 304 303 304 308 307 307 306 307 309 307 310 307 305 305 305 306 305 304 304 302 301 300 301
297 295 297 296 299 295 289 290 293 296 296 297 297 298 297 299 299 299 298 296 297 299 301 302 305 309 307 305 304 307 308 307 306 306 306 309 306 304 304 302 301 301 299 298 298
296 298 295 296 292 293 291 293 295 294 296 296 297 297 297 297 293 298 297 297 296 297 298 301 301 302 307 306 303 307 308 308 308 312 307 305 303 306 303 302 300 298 297 297 297
295 296 296 297 295 292 292 292 294 295 295 296 296 297 297 297 296 295 294 296 296 295 296 298 302 298 299 297 298 303 305 307 309 308 308 307 304 306 304 301 298 298 298 298 297
295 293 291 290 291 293 293 291 296 295 296 296 295 297 295 297 298 296 295 296 299 295 296 294 299 294 298 295 294 299 301 303 306 309 308 307 308 303 300 297 298 297 297 297 296
296 294 293 292 291 295 295 294 295 295 294 295 296 297 295 295 294 294 294 294 295 295 293 293 293 294 299 288 291 298 296 301 303 305 306 307 307 301 298 297 296 296 296 296 296

GFSSW_850_thetae_252.txt.gz
Theta_e
299 299 298 298 298 298 298 298 297 297 297 297 297 297 298 302 304 307 306 307 306 306 309 309 308 308 308 309 306 306 309 309 310 309 309 310 310 311 314 322 323 328 334 336 334
299 298 298 298 298 298 298 298 297 297 297 297 297 296 298 303 305 306 305 307 307 307 308 308 308 307 307 309 307 307 308 309 309 309 307 306 307 308 317 322 323 329 334 335 333
299 298 298 298 297 297 297 297 297 297 297 297 296 296 299 304 306 306 306 307 307 306 307 307 307 306 307 308 308 308 308 307 307 307 307 305 306 307 316 322 322 324 328 332 332
298 298 298 297 297 297 297 297 297 297 297 297 296 297 301 307 310 305 307 307 307 307 307 307 307 306 306 307 307 307 307 307 307 307 305 305 305 305 307 318 322 322 325 329 333
298 298 298 297 297 297 297 297 297 297 297 297 297 299 303 309 306 306 307 307 308 308 308 307 306 306 307 306 306 306 307 306 306 306 305 304 304 304 304 308 317 319 328 330 329
298 297 297 297 297 297 297 297 297 297 297 297 300 302 308 310 305 307 307 308 308 309 308 307 307 306 305 306 306 306 306 306 305 306 305 304 304 303 304 307 316 320 327 330 331
298 297 297 297 297 297 297 297 297 297 297 300 302 303 308 306 306 307 307 309 308 308 308 308 306 305 305 306 307 307 307 307 307 306 306 304 304 304 305 305 317 322 326 328 330
298 297 297 297 297 297 297 297 297 296 298 301 302 305 309 305 306 306 306 309 309 308 308 308 306 306 305 306 306 307 307 308 306 307 306 304 306 307 306 306 315 323 325 327 327
297 297 297 297 297 297 297 297 296 296 298 302 305 306 307 305 306 306 307 307 308 309 308 308 308 308 307 308 310 308 308 309 308 306 305 305 309 310 310 315 319 323 323 324 325
297 297 297 297 297 297 297 296 296 297 300 302 303 307 306 304 305 308 307 307 309 310 310 310 309 309 310 311 312 311 309 311 310 308 305 308 309 309 310 317 314 322 321 321 322
297 297 297 297 296 296 296 296 301 302 302 301 302 303 304 305 307 308 306 309 310 310 313 311 313 312 310 310 309 307 310 311 309 309 308 307 309 307 312 313 312 321 320 320 320
297 297 296 296 296 296 296 297 296 297 302 299 299 302 303 304 306 307 306 310 311 313 313 314 313 311 310 312 313 311 312 311 309 309 308 307 307 306 308 307 312 316 315 311 316
297 296 296 296 296 296 296 296 297 297 304 300 298 301 302 304 307 307 305 308 310 312 312 312 312 311 314 313 313 315 315 312 311 307 308 310 308 308 307 309 311 313 312 311 311
298 296 296 296 298 295 296 296 298 295 309 300 302 303 303 305 308 305 305 307 311 310 310 311 310 311 313 312 311 317 314 313 312 313 315 310 311 308 308 309 310 311 310 309 310
297 296 295 295 296 296 295 296 297 297 312 300 302 302 303 305 304 306 306 308 309 308 308 309 308 309 312 312 310 314 311 313 311 311 310 310 309 308 307 308 309 308 309 308 309
296 296 295 296 295 295 295 297 296 310 310 301 301 304 306 305 305 306 307 307 307 309 310 308 308 309 309 309 310 311 313 316 313 312 310 307 309 307 306 307 308 307 307 306 307
296 295 295 295 297 295 296 297 308 310 298 303 303 303 304 305 306 306 308 306 307 312 309 310 309 309 308 310 311 309 311 317 314 308 308 307 308 307 306 306 307 307 306 305 305
297 296 296 295 295 295 296 304 304 304 302 298 301 302 305 303 304 306 308 309 306 307 309 309 311 308 307 308 308 308 310 310 314 311 309 307 308 306 306 307 307 306 306 305 304
298 296 296 295 295 296 299 305 310 304 299 300 300 304 306 303 302 305 305 306 305 305 308 307 309 308 307 308 308 309 307 307 309 303 308 307 308 307 307 306 306 305 304 303 302
297 296 297 295 295 296 300 304 300 295 299 300 305 301 305 304 305 306 306 302 304 304 304 307 308 308 308 309 309 310 308 310 309 309 308 307 308 307 307 307 305 304 303 302 301
298 298 297 296 295 297 303 303 296 293 298 300 303 300 303 303 301 305 305 301 301 303 305 306 308 309 309 308 308 309 310 309 307 306 310 307 308 307 307 307 305 303 302 302 301
298 299 296 296 297 296 302 296 295 296 297 298 299 301 302 302 303 303 305 302 299 300 306 305 306 307 309 308 307 307 310 309 308 308 305 308 308 307 306 306 304 302 301 300 300
298 297 296 296 300 299 293 294 295 297 298 298 299 301 301 302 301 303 302 299 298 301 303 305 305 307 305 306 306 309 308 309 308 307 308 308 307 306 305 304 303 301 300 299 298
297 299 297 296 297 300 297 297 295 297 299 299 299 300 300 299 296 299 301 299 298 299 299 302 305 305 305 307 304 307 309 309 309 307 308 306 307 306 304 302 301 300 299 298 298
297 300 298 297 297 297 298 297 298 296 297 298 298 299 300 297 298 295 298 299 298 297 299 300 298 299 303 301 300 303 305 307 308 309 307 307 306 306 304 301 301 300 299 298 297
298 296 296 299 298 297 297 297 299 298 296 297 298 298 299 298 299 297 298 299 300 296 298 297 297 295 294 300 298 299 300 302 305 307 308 307 307 305 305 301 300 299 298 298 297
299 297 297 298 298 297 298 299 298 298 297 298 297 298 299 299 297 297 298 297 298 296 293 295 289 291 296 289 290 291 292 298 303 306 307 307 305 301 299 300 299 298 298 297 297

GFSSW_850_thetae_255.txt.gz
Theta_e
300 299 299 299 298 298 298 298 298 298 298 297 297 297 298 303 306 306 306 307 307 306 307 307 306 305 308 309 307 305 305 307 306 306 305 306 304 306 308 313 319 331 332 333 336
299 299 299 299 298 298 297 298 298 298 298 297 297 297 299 304 306 306 306 307 307 306 306 306 306 306 307 308 308 304 304 306 306 305 306 305 304 305 305 311 322 325 331 334 335
299 299 298 298 298 298 297 297 298 298 297 297 297 297 300 306 307 306 307 307 307 308 307 307 306 306 305 306 307 307 305 306 307 307 307 304 304 304 304 316 315 320 320 325 331
299 298 298 298 297 297 297 297 298 298 297 297 297 299 304 308 307 305 307 307 308 308 308 307 306 306 305 305 306 305 306 306 306 306 306 304 304 303 304 303 304 309 316 326 327
298 298 298 298 297 297 297 297 298 297 297 297 299 301 306 308 305 307 307 307 307 308 308 307 306 306 305 305 305 305 305 306 306 305 305 305 304 302 303 303 304 308 319 328 324
298 298 298 298 297 297 297 297 298 297 297 298 301 303 309 308 305 307 306 308 307 307 307 307 307 306 305 305 305 305 306 306 306 306 305 305 304 304 303 304 305 318 321 328 326
298 298 298 297 297 297 297 297 297 297 297 300 302 304 309 305 306 306 306 308 308 307 307 307 305 306 305 305 306 305 306 305 306 306 305 305 304 303 305 303 305 316 323 328 328
298 298 297 297 297 297 297 297 297 297 298 301 303 307 308 305 306 306 306 308 309 309 308 308 307 306 307 307 306 307 306 306 306 306 306 304 303 308 310 308 305 320 321 324 326
298 297 297 297 297 297 297 297 297 297 299 302 304 307 306 305 305 307 306 307 309 310 309 308 307 307 308 309 310 307 303 308 307 305 305 305 307 308 311 314 316 319 322 322 325
298 297 297 297 297 297 297 297 297 298 301 303 303 306 305 304 305 307 306 307 309 310 311 309 308 307 307 310 312 309 307 309 308 309 307 307 308 309 308 310 312 319 320 321 322
298 297 297 297 297 297 297 297 300 302 299 299 300 302 304 305 307 307 306 310 311 311 310 310 307 306 308 309 307 307 309 307 307 307 307 309 308 309 308 308 310 317 319 320 321
298 297 297 296 296 297 296 296 296 296 299 300 298 302 303 304 307 307 306 309 310 309 309 307 305 308 310 311 313 308 306 308 309 307 307 307 308 308 307 308 310 313 311 316 320
298 297 296 296 296 296 296 297 297 297 303 300 298 302 302 304 306 306 305 309 309 309 308 308 309 308 310 311 314 314 313 311 310 308 307 309 307 307 306 306 309 310 310 311 315
298 297 296 296 300 296 296 296 298 295 299 301 302 303 304 305 307 306 305 308 309 308 308 309 307 308 309 311 310 316 312 312 311 310 308 307 310 308 306 305 306 307 308 310 311
298 297 296 296 296 296 295 296 296 298 300 300 301 302 304 304 304 306 307 307 307 307 306 307 307 307 309 310 309 314 311 312 310 309 308 306 307 308 306 309 308 307 306 306 310
298 296 296 296 296 295 295 297 296 298 297 299 301 302 304 305 304 305 307 307 307 308 307 308 307 308 307 307 307 309 310 311 311 309 306 306 307 307 307 309 308 306 305 304 306
298 296 296 296 297 295 296 297 297 298 295 295 301 302 303 303 304 305 306 303 301 303 302 305 308 306 307 307 307 307 310 310 308 307 306 305 307 306 306 306 306 305 304 304 303
297 296 296 295 295 295 297 295 294 293 292 297 300 301 303 302 303 304 307 302 303 304 299 302 304 306 306 307 307 306 307 306 308 309 307 305 307 305 305 305 304 303 302 302 303
298 296 296 295 295 295 298 292 296 296 297 298 299 300 299 303 302 304 303 302 303 303 302 301 305 306 306 307 307 308 305 306 306 299 305 306 306 306 305 304 303 302 301 300 301
298 296 296 295 295 296 293 296 293 295 298 300 299 299 297 299 302 303 304 301 303 303 303 305 303 305 306 307 307 308 307 307 304 302 305 307 307 305 306 305 302 301 301 300 300
298 297 298 295 295 296 292 290 290 293 298 299 300 296 301 298 297 301 303 301 300 302 303 305 303 304 305 305 307 306 307 307 305 305 307 306 306 303 305 304 301 301 300 299 299
298 296 296 295 295 295 291 289 295 294 297 298 298 300 300 299 300 299 302 301 299 300 305 304 304 301 307 307 306 306 308 307 306 306 303 307 306 305 303 302 301 300 299 298 298
298 296 296 295 291 289 290 289 294 296 297 297 296 299 300 300 297 301 300 299 298 300 303 303 298 298 301 302 304 306 308 308 306 304 306 304 305 303 303 301 300 299 298 298 297
298 297 297 296 297 294 288 289 290 296 298 298 298 299 299 297 293 296 300 298 298 299 300 302 302 302 304 305 302 305 307 307 307 303 307 304 305 304 302 299 299 298 298 297 297
298 299 297 294 293 294 293 292 294 293 297 298 297 297 297 294 295 294 295 298 298 297 299 296 294 297 301 301 299 301 302 303 307 306 305 305 305 305 302 298 299 298 298 297 297
298 298 296 296 297 295 295 292 296 296 295 295 296 296 297 295 296 294 297 296 297 295 297 296 293 291 290 296 296 298 298 298 300 304 306 306 305 302 303 301 298 298 298 297 297
299 299 299 298 296 293 293 296 296 297 296 297 296 296 297 297 297 297 297 297 298 294 291 291 287 286 289 285 288 289 291 297 300 302 305 305 303 300 298 299 299 298 298 297 297

GFSSW_850_thetae_261.txt.gz
Theta_e
300 300 300 300 299 299 298 298 298 298 298 298 298 298 302 305 306 306 307 307 307 308 307 306 305 306 307 306 305 304 302 304 305 305 304 305 302 305 304 303 305 307 306 312 316
300 299 299 299 299 299 298 298 298 298 298 298 298 299 303 305 306 306 307 307 307 308 307 306 305 305 305 307 306 302 301 303 304 305 305 304 304 304 303 303 306 306 311 317 318
299 299 299 299 299 299 298 298 298 298 298 298 298 301 306 306 306 306 306 307 307 307 307 305 305 305 305 305 305 305 304 304 305 305 305 304 304 304 302 302 304 303 303 316 319
299 299 299 299 299 299 298 298 298 298 298 298 300 303 307 307 305 306 306 307 307 308 308 307 306 305 303 304 304 304 305 305 305 305 305 304 304 303 302 302 304 304 304 315 322
299 299 299 299 299 299 298 298 298 298 298 298 301 306 307 306 306 306 307 307 307 308 309 308 307 304 303 304 304 304 304 305 305 305 305 305 305 303 303 304 309 305 304 316 324
299 298 299 298 298 298 298 298 298 298 298 300 302 308 307 305 306 306 307 308 308 309 308 308 307 305 304 304 304 305 304 305 305 305 305 305 304 302 304 309 310 305 310 318 318
299 298 298 298 298 298 298 298 298 297 298 301 303 306 306 306 306 307 307 308 309 309 309 309 308 308 305 305 306 305 305 303 305 306 305 304 303 304 308 310 307 314 315 317 314
299 298 298 298 298 298 298 298 297 297 299 302 304 307 305 306 305 306 306 308 309 310 310 309 308 308 307 307 307 304 303 304 305 306 305 303 304 307 309 312 314 315 316 314 313
298 298 298 298 298 298 298 297 297 298 300 303 306 307 304 305 305 306 306 308 309 310 310 309 308 307 308 304 301 299 301 305 305 306 306 306 309 308 309 312 313 317 316 314 318
298 298 298 298 298 298 298 297 298 299 301 303 303 306 304 304 306 306 306 309 310 310 310 309 308 304 303 298 301 303 298 302 303 306 307 308 309 308 307 310 311 313 314 313 316
299 298 297 297 297 297 298 299 300 301 299 299 300 302 303 305 307 306 305 309 310 310 307 309 304 303 308 304 301 297 297 302 303 307 308 308 308 308 307 307 309 310 312 314 315
299 298 298 297 297 297 297 297 297 297 300 298 299 302 303 305 306 305 306 309 309 307 306 302 303 308 306 305 304 299 298 302 304 307 308 307 308 307 307 307 308 307 308 312 315
299 298 297 297 297 297 297 297 297 297 300 298 301 302 303 305 306 305 306 308 307 307 306 305 307 309 310 309 310 310 306 305 304 307 306 306 306 307 307 306 306 306 306 309 309
299 298 297 297 300 297 296 297 297 297 296 300 301 302 304 305 306 305 306 307 307 307 306 307 306 308 310 310 311 311 310 309 309 308 306 306 304 308 307 307 306 305 304 304 309
299 298 297 296 297 296 296 296 296 298 302 299 300 302 304 304 303 305 306 306 304 305 304 306 306 307 308 308 306 310 310 310 309 306 306 304 305 308 307 308 306 304 303 303 305
299 298 296 296 296 296 296 297 298 299 299 298 300 301 304 303 303 305 306 305 306 306 304 305 306 306 307 305 305 306 310 309 307 304 306 304 306 307 308 308 306 303 302 303 304
299 298 296 296 297 296 296 298 298 301 294 293 300 300 302 301 302 303 303 300 299 300 296 302 307 304 305 306 305 305 308 307 304 301 305 303 305 304 305 306 304 302 301 302 303
301 298 296 296 296 295 297 295 295 291 290 296 299 301 302 301 302 302 304 301 301 300 295 300 300 305 304 306 307 306 306 306 306 306 306 304 307 304 304 303 302 300 300 301 302
303 297 296 296 295 296 296 292 296 291 296 297 299 297 295 301 302 302 301 299 302 302 301 300 301 304 304 305 305 306 305 304 304 295 302 303 304 304 303 302 300 299 299 299 300
303 297 296 296 295 296 293 296 291 296 297 298 295 296 291 294 299 301 302 300 302 302 302 302 302 303 305 305 305 307 305 305 302 300 303 305 306 305 304 303 300 299 298 299 300
303 297 298 296 295 296 292 288 288 293 298 299 297 293 299 296 293 297 300 301 299 301 302 303 302 302 303 304 305 304 306 304 302 303 305 305 304 300 303 302 299 299 298 298 299
301 299 298 295 294 287 288 287 294 293 297 296 298 296 299 297 297 297 301 301 298 299 304 303 303 302 304 303 304 305 306 305 302 303 302 305 303 301 301 301 300 299 297 297 297
299 297 297 295 298 286 288 287 293 294 295 296 296 298 299 299 295 299 299 299 298 300 303 302 296 295 297 300 301 305 305 306 303 302 303 303 301 301 300 299 299 298 297 296 296
301 298 296 295 295 292 286 287 289 294 296 297 296 298 298 296 291 295 300 298 298 300 301 302 301 299 297 302 300 303 305 305 304 301 303 303 304 303 300 297 297 298 297 296 296
304 300 298 297 292 295 293 290 291 293 296 297 296 297 297 294 294 294 292 297 297 298 299 296 295 295 300 300 299 300 302 303 305 304 304 303 302 302 301 298 298 299 297 296 296
304 299 297 296 295 296 295 292 295 294 295 295 295 296 296 295 296 294 297 296 297 296 297 296 291 290 290 292 294 297 298 298 300 302 302 303 303 300 303 301 298 298 297 297 296
307 304 304 297 297 298 297 297 296 295 295 296 296 296 296 296 297 296 297 297 297 294 291 290 287 286 290 285 286 291 289 296 298 297 301 303 303 299 297 298 298 298 298 297 296